Location: Eisingen in Unterfranken
(49.7591°N, 9.8347°E)
Time: 13:16:45
(UTC+01:00)

N. Korean satellite - Pass Details

Date: 10 December 2022
Orbit: 407 x 441 km, 97.3° (Epoch: 05 February)

Event Time Altitude Azimuth Distance (km) Brightness Sun altitude
Rises 06:42:23 0° 1° (N) 2,508 10.0 -12.8°
Reaches altitude 10° 06:44:45 10° 346° (NNW) 1,619 8.9 -12.5°
Maximum altitude 06:47:29 22° 294° (WNW) 1,055 7.6 -12.1°
Drops below altitude 10° 06:50:10 10° 242° (WSW) 1,585 8.8 -11.7°
Sets 06:52:27 0° 227° (SW) 2,440 9.9 -11.3°
